Meknes, Morocco

9:06 AM WET on May 23, 2017 (GMT +0000)
Meknes

Weather History for GMFM - January, 2014

Change the Weather History Date:

Saturday, January 18, 2014

  Actual Average (GMFF) Record (GMFF)
Temperature  
Mean Temperature 46 °F -  
Max Temperature 49 °F 61 °F 71 °F (2007)
Min Temperature 44 °F 42 °F 30 °F (2003)
Degree Days  
Heating Degree Days 18    
Moisture  
Dew Point 41 °F    
Average Humidity 79    
Maximum Humidity 93    
Minimum Humidity 61    
Precipitation  
Precipitation 0.31 in 0.11 in - ()
Sea Level Pressure  
Sea Level Pressure 29.67 in    
Wind  
Wind Speed 14 mph ()    
Max Wind Speed 118 mph    
Max Gust Speed -    
Visibility 3.7 miles    
Events Rain    
Averages and records for this station are not official NWS values.
T = Trace of Precipitation, MM = Missing Value Source: Averaged Metar Reports

Daily Weather History Graph

Daily Weather History Graph

Search for Another Location

Airport or City:

Trip Planner

Search our weather history database for the weather conditions in past years. The results will help you decide how hot, cold, wet, or windy it might be!

Date:

Astronomy

Jan. 18, 2014 Rise Set
Actual Time 7:26 AM WET 5:39 PM WET
Civil Twilight 6:59 AM WET 6:05 PM WET
Nautical Twilight 6:28 AM WET 6:36 PM WET
Astronomical Twilight 5:58 AM WET 7:06 PM WET
Moon 7:59 PM WET (1/18) 8:26 AM WET (1/18)
Length of Visible Light 11h 06m
Length of Day
10h 12m
Waning Gibbous, 95% of the Moon is Illuminated
Jan 18
Waning Gibbous
Jan 24
Last Quarter
Jan 30
New
Feb 6
First Quarter
Feb 14
Full

Hourly Weather History & Observations

Time (WET) Temp. Windchill Dew Point Humidity Pressure Visibility Wind Dir Wind Speed Gust Speed Precip Events Conditions
12:00 AM 48 °F - 39 °F 61% 29.64 in 3 mi SW 15.0 mph - -   Overcast
12:00 AM 48.2 °F - 39.2 °F 71% 29.62 in 3.1 mi SW 15.0 mph - N/A   Mostly Cloudy
1:00 AM 48.2 °F - 39.2 °F 71% 29.62 in 3.7 mi SW 11.5 mph - N/A   Mostly Cloudy
2:00 AM 46.4 °F 42.9 °F 39.2 °F 76% 29.62 in 3.7 mi SW 6.9 mph - N/A   Mostly Cloudy
3:00 AM 45 °F - 38 °F 70% 29.62 in 4 mi SW 6.9 mph - -   Mostly Cloudy
3:00 AM 44.6 °F 40.7 °F 39.2 °F 81% 29.59 in 3.7 mi SW 6.9 mph - N/A   Mostly Cloudy
4:00 AM 44.6 °F 40.7 °F 39.2 °F 81% 29.59 in 3.7 mi SSW 6.9 mph - N/A   Scattered Clouds
5:00 AM 44.6 °F 41.4 °F 39.2 °F 81% 29.59 in 3.7 mi SSW 5.8 mph - N/A   Scattered Clouds
6:00 AM 46 °F - 38 °F 67% 29.62 in 4 mi SW 13.8 mph - -   Mostly Cloudy
6:00 AM 46.4 °F 40.4 °F 39.2 °F 76% 29.59 in 3.7 mi SW 13.8 mph - N/A   Scattered Clouds
7:00 AM 46.4 °F 41.1 °F 39.2 °F 76% 29.59 in 3.7 mi SW 11.5 mph - N/A   Scattered Clouds
8:00 AM 46.4 °F 40.4 °F 41.0 °F 81% 29.62 in 3.1 mi WSW 13.8 mph - N/A Rain Rain
9:00 AM 46 °F - 41 °F 77% 29.66 in 3 mi WSW 13.8 mph - - Rain Light Rain
9:00 AM 46.4 °F 40.4 °F 41.0 °F 81% 29.65 in 3.1 mi WSW 13.8 mph - N/A Rain Rain
10:00 AM 46.4 °F - 42.8 °F 87% 29.68 in 3.1 mi SW 118.5 mph - N/A Rain Rain
11:00 AM 44.6 °F 38.1 °F 42.8 °F 93% 29.68 in 3.1 mi WSW 13.8 mph - N/A Rain Rain
12:00 PM 45 °F - 42 °F 85% 29.70 in 3 mi SW 16.1 mph - - Rain Light Rain
12:00 PM 44.6 °F 37.4 °F 42.8 °F 93% 29.68 in 3.1 mi SW 16.1 mph - N/A Rain Rain
1:00 PM 44.6 °F 38.1 °F 41.0 °F 87% 29.68 in 3.1 mi WSW 13.8 mph - N/A Rain Rain
2:00 PM 48.2 °F - 42.8 °F 82% 29.65 in 5.0 mi WSW 16.1 mph - N/A   Mostly Cloudy
3:00 PM 47 °F - 44 °F 83% 29.69 in 4 mi WSW 13.8 mph - - Rain Light Rain Showers
3:00 PM 46.4 °F 40.4 °F 42.8 °F 87% 29.68 in 3.7 mi WSW 13.8 mph - N/A Rain Light Rain Showers
4:00 PM 48.2 °F - 41.0 °F 76% 29.68 in 5.0 mi WSW 15.0 mph - N/A   Overcast
5:00 PM 48.2 °F - 41.0 °F 76% 29.71 in 5.0 mi SW 12.7 mph - N/A   Mostly Cloudy
6:00 PM 45 °F - 41 °F 79% 29.76 in 4 mi SSW 10.4 mph - - Rain Light Rain Showers
6:00 PM 44.6 °F 39.2 °F 41.0 °F 87% 29.74 in 3.7 mi SSW 10.4 mph - N/A   Partly Cloudy
7:00 PM 46.4 °F 40.7 °F 41.0 °F 81% 29.74 in 5.0 mi SW 12.7 mph - N/A   Partly Cloudy
8:00 PM 46.4 °F 40.7 °F 41.0 °F 81% 29.77 in 3.7 mi SW 12.7 mph - N/A   Partly Cloudy
9:00 PM 47 °F - 40 °F 70% 29.78 in 4 mi SW 17.3 mph - -   Mostly Cloudy
9:00 PM 46.4 °F 39.5 °F 41.0 °F 81% 29.77 in 3.7 mi SW 17.3 mph - N/A   Partly Cloudy
10:00 PM 46.4 °F 39.5 °F 41.0 °F 81% 29.77 in 3.7 mi SW 17.3 mph - N/A   Partly Cloudy
11:00 PM 46.4 °F 39.5 °F 41.0 °F 81% 29.77 in 3.7 mi SW 17.3 mph - N/A   Partly Cloudy